Flag for Australia Weather past 2 weeks in Lord Howe Island, Lord Howe Island, Australia

Now
67 °F

Overcast.


Feels Like: 67 °F
Forecast: 64 / 67 °F
Wind: 8 mph from Northeast

Location: Lord Howe Island

Current Time: May 26, 2015 at 10:17:47 AM

Latest Report: May 26, 2015 at 9:00 AM


Visibility: 16 mi

Pressure: 30.37 "Hg

Humidity: 62%

Dew point: 53 °F

Location of Lord Howe IslandLocation

Historic Weather in Lord Howe Island — Graph

°F

Lord Howe Island temperature yesterday

Maximum temperature yesterday: 68 °F (at 1:30 PM)
Minimum temperature yesterday: 62 °F (at 6:00 PM)
Average temperature yesterday: 65 °F

Past Weeks' High & Low Weather Summary

 TemperatureHumidityPressure
High74 °F (May 11, 12:00 PM)94% (May 21, 7:30 PM)30.48 "Hg (May 21, 7:30 PM)
Low60 °F (May 15, 7:30 AM)46% (May 16, 3:00 PM)29.72 "Hg (May 22, 4:30 PM)
Average67 °F67%30.14 "Hg
* Reported May 11 9:00 AM — May 26 9:00 AM, Lord Howe Island, Weather by CustomWeather, © 2015

Note: Actual official high and low records may vary slightly from our data, if they occured in-between our weather recording intervals... More about our weather records

Advertising

Lord Howe Island weather history for previous 24 hours

 ConditionsComfort  
Time TempWeatherWind HumidityBarometerVisibility
9:00 AM
Tue, May 26
67 °FOvercast.8 mph62%30.37 "Hg16 mi
7:30 AM65 °FMild.6 mph63%30.37 "HgN/A
6:00 AM62 °FOvercast.3 mph71%30.36 "Hg16 mi
4:30 AM61 °FCool.1 mph73%30.36 "HgN/A
3:00 AM64 °FPassing clouds.6 mph58%30.37 "HgN/A
1:30 AM64 °FMild.6 mph61%30.39 "HgN/A
12:00 AM65 °FPassing clouds.7 mph54%30.40 "HgN/A
10:30 PM
Mon, May 25
64 °FMild.1 mph64%30.40 "HgN/A
9:00 PM63 °FOvercast.3 mph70%30.40 "HgN/A
7:30 PM65 °FMild.6 mph64%30.40 "HgN/A
6:00 PM62 °FOvercast.5 mph82%30.39 "HgN/A
4:30 PM65 °FMild.3 mph66%30.37 "HgN/A
3:00 PM66 °FOvercast.10 mph67%30.36 "Hg19 mi
1:30 PM68 °FMild.7 mph47%30.38 "HgN/A
12:00 PM67 °FPartly sunny.8 mph51%30.41 "Hg19 mi
10:30 AM68 °FMild.5 mph53%30.43 "HgN/A
Weather by CustomWeather, © 2015

See weather overviewHow to use our weather pages